Location: Eisingen in Unterfranken
(49.7591°N, 9.8347°E)
Time: 13:15:59
(UTC+01:00)

N. Korean satellite - Pass Details

Date: 03 December 2022
Orbit: 407 x 441 km, 97.3° (Epoch: 05 February)

Event Time Altitude Azimuth Distance (km) Brightness Sun altitude
Rises 06:34:01 0° 3° (N) 2,531 10.0 -13.0°
Reaches altitude 10° 06:36:17 10° 351° (N) 1,645 9.0 -12.7°
Maximum altitude 06:39:18 27° 293° (WNW) 941 7.4 -12.2°
Drops below altitude 10° 06:42:17 10° 234° (SW) 1,617 8.9 -11.8°
Sets 06:44:29 0° 222° (SW) 2,478 9.9 -11.4°
